EI9EF Weather Reports


Display with metric or nautical units.
time (UTC)temp
F
wind
direction
speed
MPH
gust
MPH
rain 1hr
in
rain 24hr
in
rain mn
in
humidity
%
barometer
mb
20190117081716 37 343 20.0 27.0 0.03 0.28 0.08 79 1015.8
20190117080138 37 351 22.0 35.0 0.02 0.28 0.07 83 1015.5
20190117074554 36 324 17.0 36.0 0.00 0.26 0.05 84 1015.5
20190117073135 39 330 18.0 25.0 0.00 0.26 0.05 75 1015.2
20190117071552 39 300 14.0 24.0 0.00 0.26 0.05 76 1015.3
20190117070051 38 345 14.0 23.0 0.00 0.26 0.05 75 1015.2
20190117064557 38 319 21.0 29.0 0.00 0.26 0.05 71 1014.9
20190117063037 38 337 19.0 27.0 0.00 0.26 0.05 74 1014.7
20190117061536 38 328 16.0 29.0 0.00 0.26 0.05 72 1014.5
20190117060030 37 328 25.0 36.0 0.00 0.26 0.05 68 1014.5
20190117054555 37 334 18.0 29.0 0.01 0.27 0.05 71 1014.4
20190117053058 37 323 19.0 24.0 0.01 0.27 0.05 74 1014.3
20190117051521 37 322 20.0 28.0 0.01 0.27 0.05 72 1014.3
20190117050127 37 344 22.0 30.0 0.01 0.27 0.05 70 1014.1
20190117044632 37 335 18.0 28.0 0.01 0.28 0.04 72 1013.9
20190117041540 37 336 21.0 30.0 0.02 0.28 0.04 77 1013.5
20190117040042 36 344 23.0 32.0 0.02 0.28 0.04 77 1013.3
20190117034523 36 328 23.0 35.0 0.02 0.27 0.03 79 1013.2
20190117031512 37 340 24.0 35.0 0.02 0.26 0.02 81 1012.7
20190117030012 37 335 27.0 39.0 0.02 0.26 0.02 74 1012.2
20190117024504 37 336 25.0 41.0 0.01 0.26 0.01 76 1011.7
20190117020209 35 325 23.0 45.0 0.00 0.25 0.00 87 1011.3
20190117014623 37 311 31.0 45.0 0.00 0.26 0.00 81 1011.3
20190117013042 38 318 24.0 32.0 0.00 0.26 0.00 75 1010.6
20190117011558 39 334 23.0 39.0 0.00 0.26 0.00 77 1010.5
20190117010018 38 334 21.0 30.0 0.00 0.26 0.00 73 1010.2
20190117004524 37 325 20.0 32.0 0.00 0.30 0.00 73 1009.9
20190117003105 37 357 23.0 32.0 0.00 0.30 0.00 74 1009.7
20190117001708 37 353 23.0 34.0 0.00 0.30 0.00 74 1009.4
20190117000133 37 325 25.0 38.0 0.00 0.30 0.00 73 1009.2
20190116234516 37 340 26.0 38.0 0.00 0.30 0.30 72 1008.8
20190116233024 38 352 30.0 43.0 0.00 0.30 0.30 74 1008.4
20190116230218 39 332 29.0 43.0 0.00 0.30 0.30 76 1007.5
20190116224634 39 342 28.0 37.0 0.00 0.30 0.30 82 1006.8
20190116223030 39 340 28.0 41.0 0.00 0.30 0.30 85 1006.5
20190116221557 39 349 27.0 39.0 0.02 0.30 0.30 86 1006.1
20190116220018 39 344 27.0 37.0 0.03 0.30 0.30 87 1005.6
20190116214514 39 354 26.0 39.0 0.04 0.30 0.30 89 1005.1
20190116213034 38 330 22.0 33.0 0.05 0.30 0.30 92 1004.7
20190116211527 38 344 22.0 35.0 0.06 0.28 0.28 92 1004.0
20190116210014 37 340 15.0 29.0 0.04 0.27 0.27 92 1003.8
20190116204514 37 312 10.0 17.0 0.05 0.26 0.26 91 1003.4
20190116203005 38 291 9.0 18.0 0.06 0.26 0.26 91 1003.2
20190116201741 38 327 14.0 19.0 0.03 0.23 0.23 90 1003.1
20190116200106 38 320 15.0 22.0 0.03 0.23 0.23 89 1002.8
20190116194615 37 278 7.0 13.0 0.03 0.23 0.23 91 1002.2
20190116191532 37 294 5.0 8.0 0.00 0.20 0.20 89 1001.3
20190116190116 37 295 7.0 17.0 0.00 0.20 0.20 89 1001.1
20190116184646 36 271 5.0 8.0 0.00 0.20 0.20 90 1001.0
20190116183142 37 278 9.0 11.0 0.00 0.20 0.20 91 1000.9
20190116180153 37 263 3.0 10.0 0.00 0.20 0.20 91 1000.6
20190116174650 37 283 8.0 12.0 0.01 0.20 0.20 92 1000.4
20190116173111 37 284 8.0 11.0 0.01 0.20 0.20 94 1000.2
20190116170139 37 270 4.0 6.0 0.01 0.20 0.20 93 1000.2
20190116164649 37 247 4.0 7.0 0.00 0.19 0.19 93 1000.2
20190116163128 37 243 4.0 9.0 0.00 0.19 0.19 93 1000.0
20190116160022 38 255 3.0 10.0 0.00 0.19 0.19 93 1000.0
20190116154539 38 226 6.0 9.0 0.00 0.19 0.19 92 999.8
20190116153040 39 251 5.0 7.0 0.00 0.19 0.19 92 999.6
20190116151515 38 245 3.0 9.0 0.00 0.19 0.19 92 999.6
20190116150014 39 239 7.0 9.0 0.00 0.19 0.19 91 999.7
20190116144505 39 240 5.0 9.0 0.00 0.19 0.19 92 999.7
20190116143005 39 218 8.0 12.0 0.01 0.19 0.19 91 999.7
20190116140108 38 245 7.0 12.0 0.01 0.19 0.19 92 999.6
20190116134604 38 264 9.0 14.0 0.01 0.19 0.19 93 999.7
20190116133113 38 262 11.0 16.0 0.01 0.19 0.19 93 999.7
20190116131618 38 240 9.0 14.0 0.00 0.18 0.18 93 999.6
20190116124622 38 243 9.0 12.0 0.01 0.18 0.18 93 999.5
20190116123058 37 253 6.0 11.0 0.06 0.18 0.18 93 999.4
20190116121533 37 232 7.0 10.0 0.06 0.18 0.18 94 999.4
20190116120029 36 257 4.0 9.0 0.07 0.18 0.18 93 999.8
20190116114528 35 245 7.0 16.0 0.09 0.18 0.18 92 1000.1
20190116113033 38 242 14.0 20.0 0.04 0.13 0.13 92 1000.2
20190116111545 39 224 11.0 18.0 0.03 0.12 0.12 91 999.9
20190116110143 39 218 9.0 16.0 0.02 0.11 0.11 91 1000.0
20190116104527 40 230 5.0 9.0 0.00 0.09 0.09 91 999.8
20190116103023 39 218 5.0 8.0 0.00 0.09 0.09 91 999.8
20190116100012 39 217 3.0 9.0 0.00 0.09 0.09 90 999.8
20190116093011 36 227 8.0 11.0 0.00 0.09 0.09 91 999.6
20190116090151 36 255 7.0 10.0 0.00 0.09 0.09 90 999.9
20190116084618 36 253 8.0 13.0 0.00 0.09 0.09 90 999.4